Weather History for Cecil Field, FL

Change the Weather History Date:

Tuesday, February 5, 2013

  Actual Average (KJAX) Record (KJAX)
Temperature  
Mean Temperature 53 °F 55 °F  
Max Temperature 71 °F 67 °F 87 °F (1957)
Min Temperature 35 °F 43 °F 19 °F (1996)
Degree Days  
Heating Degree Days 12 11  
Month to date heating degree days 55  
Since 1 July heating degree days 931  
Cooling Degree Days 0 0  
Month to date cooling degree days 0  
Year to date cooling degree days 11  
Growing Degree Days 3 (Base 50)    
Moisture  
Dew Point 44 °F    
Average Humidity 83    
Maximum Humidity 100    
Minimum Humidity 43    
Precipitation  
Precipitation 0.00 in 0.10 in 2.00 in (1987)
Month to date precipitation 0.54  
Year to date precipitation 3.84  
Snow  
Snow 0.00 in 0.00 in T in (1875)
Month to date snowfall 0.0  
Since 1 July snowfall T  
Snow Depth -    
Sea Level Pressure  
Sea Level Pressure 30.06 in    
Wind  
Wind Speed 0 mph (SSW)    
Max Wind Speed 9 mph    
Max Gust Speed -    
Visibility 8 miles    
Events Rain    
T = Trace of Precipitation, MM = Missing Value Source: NWS Daily Summary

Daily Weather History Graph

Daily Weather History Graph

Search for Another Location

Airport:

Trip Planner

Search our weather history database for the weather conditions in past years. The results will help you decide how hot, cold, wet, or windy it might be!

Date:

Astronomy

Feb. 05, 2013 Rise Set
Actual Time 7:15 AM EST 6:08 PM EST
Civil Twilight 6:50 AM EST 6:33 PM EST
Nautical Twilight 6:21 AM EST 7:01 PM EST
Astronomical Twilight 5:53 AM EST 7:29 PM EST
Moon 2:48 AM EST (2/5) 1:32 PM EST (2/5)
Length of Visible Light 11h 42m
Length of Day
10h 52m
Waning Crescent, 27% of the Moon is Illuminated
Feb 5
Waning Crescent
Feb 10
New
Feb 17
First Quarter
Feb 25
Full
Mar 4
Last Quarter

Hourly Weather History & Observations

Time (EST) Temp. Dew Point Humidity Pressure Visibility Wind Dir Wind Speed Gust Speed Precip Events Conditions
12:15 AM 44.6 °F 41.0 °F 87% 30.07 in 10.0 mi Calm Calm - N/A   Clear
12:35 AM 44.6 °F 39.2 °F 81% 30.07 in 10.0 mi Calm Calm - N/A   Clear
12:55 AM 42.8 °F 39.2 °F 87% 30.06 in 10.0 mi Calm Calm - N/A   Clear
1:15 AM 42.8 °F 39.2 °F 87% 30.07 in 10.0 mi Calm Calm - N/A   Clear
1:35 AM 41.0 °F 39.2 °F 93% 30.05 in 10.0 mi Calm Calm - N/A   Clear
1:55 AM 41.0 °F 37.4 °F 87% 30.06 in 10.0 mi Calm Calm - N/A   Clear
2:15 AM 39.2 °F 37.4 °F 93% 30.05 in 10.0 mi Calm Calm - N/A   Clear
2:35 AM 39.2 °F 37.4 °F 93% 30.05 in 10.0 mi Calm Calm - N/A   Clear
2:55 AM 37.4 °F 35.6 °F 93% 30.05 in 10.0 mi Calm Calm - N/A   Clear
3:15 AM 37.4 °F 35.6 °F 93% 30.05 in 6.0 mi Calm Calm - N/A   Clear
3:35 AM 37.4 °F 35.6 °F 93% 30.04 in 4.0 mi Calm Calm - N/A   Clear
3:55 AM 35.6 °F 33.8 °F 93% 30.05 in 3.0 mi Calm Calm - N/A   Clear
4:15 AM 37.4 °F 35.6 °F 93% 30.05 in 3.0 mi Calm Calm - N/A   Clear
4:35 AM 37.4 °F 37.4 °F 100% 30.04 in 3.0 mi Calm Calm - N/A   Clear
4:55 AM 39.2 °F 37.4 °F 93% 30.04 in 4.0 mi Calm Calm - N/A   Clear
5:15 AM 39.2 °F 39.2 °F 100% 30.05 in 4.0 mi Calm Calm - N/A   Clear
5:35 AM 37.4 °F 37.4 °F 100% 30.06 in 4.0 mi Calm Calm - N/A   Clear
5:55 AM 37.4 °F 37.4 °F 100% 30.06 in 5.0 mi Calm Calm - N/A   Clear
6:15 AM 37.4 °F 35.6 °F 93% 30.07 in 5.0 mi Calm Calm - N/A   Clear
6:35 AM 37.4 °F 37.4 °F 100% 30.09 in 5.0 mi Calm Calm - N/A   Clear
7:50 AM 39.2 °F 39.2 °F 100% 30.10 in 10.0 mi Calm Calm - N/A   Scattered Clouds
8:50 AM 50.0 °F 41.0 °F 71% 30.10 in 10.0 mi Calm Calm - N/A   Scattered Clouds
9:50 AM 55.4 °F 41.0 °F 58% 30.12 in 10.0 mi Calm Calm - N/A   Mostly Cloudy
10:50 AM 57.2 °F 41.0 °F 55% 30.12 in 10.0 mi Calm Calm - N/A   Mostly Cloudy
11:50 AM 62.6 °F 42.8 °F 48% 30.11 in 10.0 mi Calm Calm - N/A   Mostly Cloudy
12:50 PM 64.4 °F 46.4 °F 52% 30.08 in 10.0 mi Calm Calm - N/A   Clear
1:50 PM 68.0 °F 44.6 °F 43% 30.04 in 10.0 mi Variable 5.8 mph - N/A   Clear
2:50 PM 69.8 °F 46.4 °F 43% 30.03 in 10.0 mi SSW 9.2 mph - N/A   Clear
3:50 PM 71.6 °F 48.2 °F 43% 30.02 in 10.0 mi SSW 4.6 mph - N/A   Clear
4:50 PM 68.0 °F 48.2 °F 49% 30.03 in 10.0 mi WSW 4.6 mph - N/A   Clear
5:50 PM 66.2 °F 50.0 °F 56% 30.01 in 10.0 mi SSE 3.5 mph - N/A   Clear
7:50 PM 57.2 °F 51.8 °F 82% 30.04 in - Calm Calm - N/A   Scattered Clouds
8:15 PM 57.2 °F 51.8 °F 82% 30.05 in 10.0 mi Calm Calm - N/A   Scattered Clouds
8:35 PM 57.2 °F 51.8 °F 82% 30.05 in 10.0 mi Calm Calm - N/A   Partly Cloudy
8:55 PM 57.2 °F 53.6 °F 88% 30.06 in 10.0 mi Calm Calm - N/A Rain Light Rain
9:15 PM 55.4 °F 53.6 °F 94% 30.07 in 10.0 mi Calm Calm - N/A   Mostly Cloudy
9:35 PM 55.4 °F 53.6 °F 94% 30.07 in 10.0 mi Calm Calm - N/A   Scattered Clouds
9:55 PM 55.4 °F 53.6 °F 94% 30.07 in 10.0 mi Calm Calm - N/A   Partly Cloudy
10:15 PM 57.2 °F 53.6 °F 88% 30.07 in 8.0 mi Calm Calm - N/A Rain Light Rain
10:35 PM 55.4 °F 53.6 °F 94% 30.07 in 10.0 mi Calm Calm - N/A   Clear
10:55 PM 53.6 °F 51.8 °F 94% 30.07 in 10.0 mi Calm Calm - N/A   Scattered Clouds
11:15 PM 55.4 °F 53.6 °F 94% 30.08 in 10.0 mi Calm Calm - N/A   Mostly Cloudy
11:35 PM 55.4 °F 53.6 °F 94% 30.08 in 10.0 mi Calm Calm - N/A   Overcast
11:55 PM 55.4 °F 53.6 °F 94% 30.08 in 10.0 mi Calm Calm - N/A   Overcast